Showing default

AEROCUBE 7, 40966

Orbit data source: Space-Track

AEROCUBE 7, 40966 is a payload satellite owned by AERO (US) in LEO that was launched on Thu, 08 Oct 2015 UTC via an ATLAS V 401 launch vehicle from the Air Force Western Test Range (AFWTR). Payload-class satellites include a variety of spacecraft equipped with specific instruments for various scientific and technological missions. These include communications satellites like Starlink; space stations such as the ISS; scientific satellites like the Hubble; Earth observation satellites from companies like Planet Labs, Umbra, and HawkEye 360; GPS; miniature CubeSats for education and research; and military/defense satellites.

Loading next visibility...
Identifier
40966, 2015-058C
Orbit
LEO
Country
Flag of USUS
Related business
Manufacturer
AERO
Mission
Operational Defense Technology
Bus & Motor
CUBESAT 1.5U, Unknown motor
Mass
2 kg wet, 2 kg dry
Launch date (UTC)
2015-10-08 (11 years ago)
Launch vehicle
ATLAS V 401
Launch site
Air Force Western Test Range (AFWTR)
Object type
Payload
Rocket body
Debris
Shape & HBR
Box, 0.1 m
Radar Cross Section
0.025 m², Medium (>0.1 m² and < 1m²)

Expand to show TLE details & history
Last TLE update: 1 week ago

TLE from 1 week ago
0 AEROCUBE 7
1 40966U 15058C   26154.79454420  .00004353  00000-0  35185-3 0  9997
2 40966  64.7636 286.7614 0120013  67.0259 294.3464 14.95631029363957
Epoch: 2026-06-03T19:04Z
TLE epoch observation values (Epoch: 2026-06-03T19:04:08.618Z)
Latitude
-0.00003°
Longitude
108.47743°
Altitude
548.832 km
Speed
7.606 km/s
True Right ascension
19h 07m 02s
True Declination
0° 00' 00"
Sunlit
Object was in full shadow at epoch
Visualization orbit readout
Latitude
Unknown
Longitude
Unknown
Altitude
Unknown
Speed
Unknown
Apparent Right ascension
Unknown
Apparent Declination
Unknown
Sunlit
N/A
Visualization observer readout
Local Sidereal Time
19:42:25
Azimuth
Unknown
Elevation
Unknown
Doppler factor
Unknown
Orbital elements
Apogee altitude
662.475 km
Perigee altitude
495.486 km
Semi-major axis
6,957.117 km
Eccentricity
0.012
Inclination
64.7636°
RAAN
286.7614°
Arg. of periapsis
67.0259°
True anomaly
293.08576°
Mean anomaly
294.3464°
Eccentric anomaly
293.71685°
Mean motion
3.74024 °/min
Orbital period
96.25 mins
BSTAR
0.00035185
Loading maneuver chart data...
Computing Atmospheric mass density...
Loading historical data...
Loading historical data...
Loading historical data...
Loading historical data...
Loading historical data...
Loading historical data...
Loading historical data...

Documentation

Showing up to 5 results
|